Location: Darmstadt
(49.8706°N, 8.6494°E)
Time: 07:24:05
(UTC+01:00)

ATLAS 5 CENTAUR R/B - Pass Details

Date: 31 October 2020
Orbit: 522 x 1136 km, 63.4° (Epoch: 30 November)

Event Time Altitude Azimuth Distance (km) Brightness Sun altitude
Rises 20:16:40 0° 314° (NW) 3,060 6.0 -31.4°
Reaches altitude 10° 20:19:12 10° 327° (NNW) 2,238 4.9 -31.8°
Enters shadow 20:21:45 23° 354° (N) 1,634 3.8 -32.2°
